Time,TemperatureF,DewpointF,PressureIn,WindDirection,WindDirectionDegrees,WindSpeedMPH,WindSpeedGustMPH,Humidity,HourlyPrecipIn,Conditions,Clouds,dailyrainin,SolarRadiationWatts/m^2,SoftwareType,DateUTC
2013-04-01 00:02:00,40.0,23.0,-100.00,ESE,103,5.0,12.0,50,0.00,,,0.00,0.000000,,2013-04-01 06:02:00,
2013-04-01 00:12:00,40.0,23.0,-100.00,ESE,103,5.0,12.0,50,0.00,,,0.00,0.000000,,2013-04-01 06:12:00,
2013-04-01 00:22:00,40.0,23.0,-100.00,ESE,103,5.0,12.0,50,0.00,,,0.00,0.000000,,2013-04-01 06:22:00,
2013-04-01 00:30:00,35.0,23.0,-100.00,WNW,283,5.0,7.0,61,0.00,,,0.00,0.000000,,2013-04-01 06:30:00,
2013-04-01 00:52:00,35.0,23.0,-100.00,WNW,283,5.0,7.0,61,0.00,,,0.00,0.000000,,2013-04-01 06:52:00,
2013-04-01 01:02:00,35.0,23.0,-100.00,WNW,283,5.0,7.0,61,0.00,,,0.00,0.000000,,2013-04-01 07:02:00,
2013-04-01 01:12:00,35.0,23.0,-100.00,WNW,283,5.0,7.0,61,0.00,,,0.00,0.000000,,2013-04-01 07:12:00,
2013-04-01 01:22:00,35.0,23.0,-100.00,WNW,283,5.0,7.0,61,0.00,,,0.00,0.000000,,2013-04-01 07:22:00,
2013-04-01 01:30:00,34.0,21.0,-100.00,WSW,238,6.0,9.0,59,0.00,,,0.00,0.000000,,2013-04-01 07:30:00,
2013-04-01 01:52:00,34.0,21.0,-100.00,WSW,238,6.0,9.0,59,0.00,,,0.00,0.000000,,2013-04-01 07:52:00,
2013-04-01 02:02:00,34.0,21.0,-100.00,WSW,238,6.0,9.0,59,0.00,,,0.00,0.000000,,2013-04-01 08:02:00,
2013-04-01 02:12:00,34.0,21.0,-100.00,WSW,238,6.0,9.0,59,0.00,,,0.00,0.000000,,2013-04-01 08:12:00,
2013-04-01 02:22:00,34.0,21.0,-100.00,WSW,238,6.0,9.0,59,0.00,,,0.00,0.000000,,2013-04-01 08:22:00,
2013-04-01 02:30:00,31.0,21.0,-100.00,West,264,6.0,8.0,65,0.00,,,0.00,0.000000,,2013-04-01 08:30:00,
2013-04-01 02:53:00,31.0,21.0,-100.00,West,264,6.0,8.0,65,0.00,,,0.00,0.000000,,2013-04-01 08:53:00,
2013-04-01 03:02:00,31.0,21.0,-100.00,West,264,6.0,8.0,65,0.00,,,0.00,0.000000,,2013-04-01 09:02:00,
2013-04-01 03:12:00,31.0,21.0,-100.00,West,264,6.0,8.0,65,0.00,,,0.00,0.000000,,2013-04-01 09:12:00,
2013-04-01 03:22:00,31.0,21.0,-100.00,West,264,6.0,8.0,65,0.00,,,0.00,0.000000,,2013-04-01 09:22:00,
2013-04-01 03:30:00,30.0,21.0,-100.00,West,279,5.0,9.0,69,0.00,,,0.00,0.000000,,2013-04-01 09:30:00,
2013-04-01 03:53:00,30.0,21.0,-100.00,West,279,5.0,9.0,69,0.00,,,0.00,0.000000,,2013-04-01 09:53:00,
2013-04-01 04:03:00,30.0,21.0,-100.00,West,279,5.0,9.0,69,0.00,,,0.00,0.000000,,2013-04-01 10:03:00,
2013-04-01 04:12:00,30.0,21.0,-100.00,West,279,5.0,9.0,69,0.00,,,0.00,0.000000,,2013-04-01 10:12:00,
2013-04-01 04:22:00,30.0,21.0,-100.00,West,279,5.0,9.0,69,0.00,,,0.00,0.000000,,2013-04-01 10:22:00,
2013-04-01 04:30:00,26.0,19.0,-100.00,North,351,1.0,5.0,73,0.00,,,0.00,0.000000,,2013-04-01 10:30:00,
2013-04-01 04:53:00,26.0,19.0,-100.00,North,351,1.0,5.0,73,0.00,,,0.00,0.000000,,2013-04-01 10:53:00,
2013-04-01 05:02:00,26.0,19.0,-100.00,North,351,1.0,5.0,73,0.00,,,0.00,0.000000,,2013-04-01 11:02:00,
2013-04-01 05:12:00,26.0,19.0,-100.00,North,351,1.0,5.0,73,0.00,,,0.00,0.000000,,2013-04-01 11:12:00,
2013-04-01 05:22:00,26.0,19.0,-100.00,North,351,1.0,5.0,73,0.00,,,0.00,0.000000,,2013-04-01 11:22:00,
2013-04-01 05:30:00,24.0,19.0,-100.00,SW,233,2.0,3.0,81,0.00,,,0.00,0.000000,,2013-04-01 11:30:00,
2013-04-01 05:53:00,24.0,19.0,-100.00,SW,233,2.0,3.0,81,0.00,,,0.00,0.000000,,2013-04-01 11:53:00,
2013-04-01 06:02:00,24.0,19.0,-100.00,SW,233,2.0,3.0,81,0.00,,,0.00,0.000000,,2013-04-01 12:02:00,
2013-04-01 06:12:00,24.0,19.0,-100.00,SW,233,2.0,3.0,81,0.00,,,0.00,0.000000,,2013-04-01 12:12:00,
2013-04-01 06:22:00,24.0,19.0,-100.00,SW,233,2.0,3.0,81,0.00,,,0.00,0.000000,,2013-04-01 12:22:00,
2013-04-01 06:30:00,23.0,19.0,-100.00,WNW,290,2.0,2.0,83,0.00,,,0.00,0.000000,,2013-04-01 12:30:00,
2013-04-01 06:53:00,23.0,19.0,-100.00,WNW,290,2.0,2.0,83,0.00,,,0.00,0.000000,,2013-04-01 12:53:00,
2013-04-01 07:02:00,23.0,19.0,-100.00,WNW,290,2.0,2.0,83,0.00,,,0.00,0.000000,,2013-04-01 13:02:00,
2013-04-01 07:12:00,23.0,19.0,-100.00,WNW,290,2.0,2.0,83,0.00,,,0.00,0.000000,,2013-04-01 13:12:00,
2013-04-01 07:22:00,23.0,19.0,-100.00,WNW,290,2.0,2.0,83,0.00,,,0.00,0.000000,,2013-04-01 13:22:00,
2013-04-01 07:30:00,22.0,18.0,-100.00,WSW,247,2.0,3.0,85,0.00,,,0.00,5.000000,,2013-04-01 13:30:00,
2013-04-01 07:52:00,22.0,18.0,-100.00,WSW,247,2.0,3.0,85,0.00,,,0.00,5.000000,,2013-04-01 13:52:00,
2013-04-01 08:03:00,22.0,18.0,-100.00,WSW,247,2.0,3.0,85,0.00,,,0.00,5.000000,,2013-04-01 14:03:00,
2013-04-01 08:12:00,22.0,18.0,-100.00,WSW,247,2.0,3.0,85,0.00,,,0.00,5.000000,,2013-04-01 14:12:00,
2013-04-01 08:22:00,22.0,18.0,-100.00,WSW,247,2.0,3.0,85,0.00,,,0.00,5.000000,,2013-04-01 14:22:00,
2013-04-01 08:30:00,29.0,22.0,-100.00,East,88,2.0,5.0,76,0.00,,,0.00,78.000000,,2013-04-01 14:30:00,
2013-04-01 08:53:00,29.0,22.0,-100.00,East,88,2.0,5.0,76,0.00,,,0.00,78.000000,,2013-04-01 14:53:00,
2013-04-01 09:02:00,29.0,22.0,-100.00,East,88,2.0,5.0,76,0.00,,,0.00,78.000000,,2013-04-01 15:02:00,
2013-04-01 09:12:00,29.0,22.0,-100.00,East,88,2.0,5.0,76,0.00,,,0.00,78.000000,,2013-04-01 15:12:00,
2013-04-01 09:22:00,29.0,22.0,-100.00,East,88,2.0,5.0,76,0.00,,,0.00,78.000000,,2013-04-01 15:22:00,
2013-04-01 09:30:00,37.0,26.0,-100.00,SSW,192,3.0,6.0,63,0.00,,,0.00,302.000000,,2013-04-01 15:30:00,
2013-04-01 09:53:00,37.0,26.0,-100.00,SSW,192,3.0,6.0,63,0.00,,,0.00,302.000000,,2013-04-01 15:53:00,
2013-04-01 10:02:00,37.0,26.0,-100.00,SSW,192,3.0,6.0,63,0.00,,,0.00,302.000000,,2013-04-01 16:02:00,
2013-04-01 10:12:00,37.0,26.0,-100.00,SSW,192,3.0,6.0,63,0.00,,,0.00,302.000000,,2013-04-01 16:12:00,
2013-04-01 10:22:00,37.0,26.0,-100.00,SSW,192,3.0,6.0,63,0.00,,,0.00,302.000000,,2013-04-01 16:22:00,
2013-04-01 11:30:00,49.0,27.0,-100.00,SE,143,3.0,9.0,43,-99.99,,,0.00,706.000000,,2013-04-01 17:30:00,
2013-04-01 11:53:00,49.0,27.0,-100.00,SE,143,3.0,9.0,43,-99.99,,,0.00,706.000000,,2013-04-01 17:53:00,
2013-04-01 12:02:00,49.0,27.0,-100.00,SE,143,3.0,9.0,43,-99.99,,,0.00,706.000000,,2013-04-01 18:02:00,
2013-04-01 12:12:00,49.0,27.0,-100.00,SE,143,3.0,9.0,43,-99.99,,,0.00,706.000000,,2013-04-01 18:12:00,
2013-04-01 12:22:00,49.0,27.0,-100.00,SE,143,3.0,9.0,43,-99.99,,,0.00,706.000000,,2013-04-01 18:22:00,
2013-04-01 12:30:00,51.0,27.0,-100.00,East,99,11.0,15.0,39,0.00,,,0.00,859.000000,,2013-04-01 18:30:00,
2013-04-01 12:53:00,51.0,27.0,-100.00,East,99,11.0,15.0,39,0.00,,,0.00,859.000000,,2013-04-01 18:53:00,
2013-04-01 13:03:00,51.0,27.0,-100.00,East,99,11.0,15.0,39,0.00,,,0.00,859.000000,,2013-04-01 19:03:00,
2013-04-01 13:12:00,51.0,27.0,-100.00,East,99,11.0,15.0,39,0.00,,,0.00,859.000000,,2013-04-01 19:12:00,
2013-04-01 13:22:00,51.0,27.0,-100.00,East,99,11.0,15.0,39,0.00,,,0.00,859.000000,,2013-04-01 19:22:00,
2013-04-01 13:30:00,54.0,26.0,-100.00,ESE,109,14.0,19.0,34,0.00,,,0.00,933.000000,,2013-04-01 19:30:00,
2013-04-01 13:53:00,54.0,26.0,-100.00,ESE,109,14.0,19.0,34,0.00,,,0.00,933.000000,,2013-04-01 19:53:00,
2013-04-01 14:02:00,54.0,26.0,-100.00,ESE,109,14.0,19.0,34,0.00,,,0.00,933.000000,,2013-04-01 20:02:00,
2013-04-01 14:12:00,54.0,26.0,-100.00,ESE,109,14.0,19.0,34,0.00,,,0.00,933.000000,,2013-04-01 20:12:00,
2013-04-01 14:22:00,54.0,26.0,-100.00,ESE,109,14.0,19.0,34,0.00,,,0.00,933.000000,,2013-04-01 20:22:00,
2013-04-01 14:30:00,57.0,27.0,-100.00,ESE,102,14.0,18.0,31,0.00,,,0.00,924.000000,,2013-04-01 20:30:00,
2013-04-01 14:52:00,57.0,27.0,-100.00,ESE,102,14.0,18.0,31,0.00,,,0.00,924.000000,,2013-04-01 20:52:00,
2013-04-01 15:02:00,57.0,27.0,-100.00,ESE,102,14.0,18.0,31,0.00,,,0.00,924.000000,,2013-04-01 21:02:00,
2013-04-01 15:11:00,57.0,27.0,-100.00,ESE,102,14.0,18.0,31,0.00,,,0.00,924.000000,,2013-04-01 21:11:00,
2013-04-01 15:22:00,57.0,27.0,-100.00,ESE,102,14.0,18.0,31,0.00,,,0.00,924.000000,,2013-04-01 21:22:00,
2013-04-01 15:30:00,60.0,27.0,-100.00,East,99,10.0,20.0,28,0.00,,,0.00,915.000000,,2013-04-01 21:30:00,
2013-04-01 15:53:00,60.0,27.0,-100.00,East,99,10.0,20.0,28,0.00,,,0.00,915.000000,,2013-04-01 21:53:00,
2013-04-01 16:02:00,60.0,27.0,-100.00,East,99,10.0,20.0,28,0.00,,,0.00,915.000000,,2013-04-01 22:02:00,
2013-04-01 16:12:00,60.0,27.0,-100.00,East,99,10.0,20.0,28,0.00,,,0.00,915.000000,,2013-04-01 22:12:00,
2013-04-01 16:22:00,60.0,27.0,-100.00,East,99,10.0,20.0,28,0.00,,,0.00,915.000000,,2013-04-01 22:22:00,
2013-04-01 16:30:00,61.0,27.0,-100.00,ENE,72,8.0,16.0,27,0.00,,,0.00,803.000000,,2013-04-01 22:30:00,
2013-04-01 16:52:00,61.0,27.0,-100.00,ENE,72,8.0,16.0,27,0.00,,,0.00,803.000000,,2013-04-01 22:52:00,
2013-04-01 17:02:00,61.0,27.0,-100.00,ENE,72,8.0,16.0,27,0.00,,,0.00,803.000000,,2013-04-01 23:02:00,
2013-04-01 17:12:00,61.0,27.0,-100.00,ENE,72,8.0,16.0,27,0.00,,,0.00,803.000000,,2013-04-01 23:12:00,
2013-04-01 17:22:00,61.0,27.0,-100.00,ENE,72,8.0,16.0,27,0.00,,,0.00,803.000000,,2013-04-01 23:22:00,
2013-04-01 17:30:00,61.0,26.0,-100.00,East,89,9.0,15.0,26,0.00,,,0.00,611.000000,,2013-04-01 23:30:00,
2013-04-01 17:53:00,61.0,26.0,-100.00,East,89,9.0,15.0,26,0.00,,,0.00,611.000000,,2013-04-01 23:53:00,
2013-04-01 18:02:00,61.0,26.0,-100.00,East,89,9.0,15.0,26,0.00,,,0.00,611.000000,,2013-04-02 00:02:00,
2013-04-01 18:12:00,61.0,26.0,-100.00,East,89,9.0,15.0,26,0.00,,,0.00,611.000000,,2013-04-02 00:12:00,
2013-04-01 18:22:00,61.0,26.0,-100.00,East,89,9.0,15.0,26,0.00,,,0.00,611.000000,,2013-04-02 00:22:00,
2013-04-01 18:30:00,60.0,25.0,-100.00,East,80,7.0,13.0,26,0.00,,,0.00,431.000000,,2013-04-02 00:30:00,
2013-04-01 18:53:00,60.0,25.0,-100.00,East,80,7.0,13.0,26,0.00,,,0.00,431.000000,,2013-04-02 00:53:00,
2013-04-01 19:02:00,60.0,25.0,-100.00,East,80,7.0,13.0,26,0.00,,,0.00,431.000000,,2013-04-02 01:02:00,
2013-04-01 19:11:00,60.0,25.0,-100.00,East,80,7.0,13.0,26,0.00,,,0.00,431.000000,,2013-04-02 01:11:00,
2013-04-01 19:22:00,60.0,25.0,-100.00,East,80,7.0,13.0,26,0.00,,,0.00,431.000000,,2013-04-02 01:22:00,
2013-04-01 19:30:00,57.0,23.0,-100.00,ENE,66,7.0,13.0,27,0.00,,,0.00,205.000000,,2013-04-02 01:30:00,
2013-04-01 19:53:00,57.0,23.0,-100.00,ENE,66,7.0,13.0,27,0.00,,,0.00,205.000000,,2013-04-02 01:53:00,
2013-04-01 20:02:00,57.0,23.0,-100.00,ENE,66,7.0,13.0,27,0.00,,,0.00,205.000000,,2013-04-02 02:02:00,
2013-04-01 20:12:00,57.0,23.0,-100.00,ENE,66,7.0,13.0,27,0.00,,,0.00,205.000000,,2013-04-02 02:12:00,
2013-04-01 20:22:00,57.0,23.0,-100.00,ENE,66,7.0,13.0,27,0.00,,,0.00,205.000000,,2013-04-02 02:22:00,
2013-04-01 20:30:00,52.0,22.0,-100.00,East,81,5.0,10.0,31,0.00,,,0.00,7.000000,,2013-04-02 02:30:00,
2013-04-01 20:53:00,52.0,22.0,-100.00,East,81,5.0,10.0,31,0.00,,,0.00,7.000000,,2013-04-02 02:53:00,
2013-04-01 21:02:00,52.0,22.0,-100.00,East,81,5.0,10.0,31,0.00,,,0.00,7.000000,,2013-04-02 03:02:00,
2013-04-01 21:12:00,52.0,22.0,-100.00,East,81,5.0,10.0,31,0.00,,,0.00,7.000000,,2013-04-02 03:12:00,
2013-04-01 21:22:00,52.0,22.0,-100.00,East,81,5.0,10.0,31,0.00,,,0.00,7.000000,,2013-04-02 03:22:00,
2013-04-01 21:30:00,48.0,21.0,-100.00,East,89,6.0,11.0,34,0.00,,,0.00,0.000000,,2013-04-02 03:30:00,
2013-04-01 21:53:00,48.0,21.0,-100.00,East,89,6.0,11.0,34,0.00,,,0.00,0.000000,,2013-04-02 03:53:00,
2013-04-01 22:02:00,48.0,21.0,-100.00,East,89,6.0,11.0,34,0.00,,,0.00,0.000000,,2013-04-02 04:02:00,
2013-04-01 22:13:00,48.0,21.0,-100.00,East,89,6.0,11.0,34,0.00,,,0.00,0.000000,,2013-04-02 04:13:00,
2013-04-01 22:22:00,48.0,21.0,-100.00,East,89,6.0,11.0,34,0.00,,,0.00,0.000000,,2013-04-02 04:22:00,
2013-04-01 22:30:00,41.0,21.0,-100.00,WNW,287,3.0,8.0,44,0.00,,,0.00,0.000000,,2013-04-02 04:30:00,
2013-04-01 22:53:00,41.0,21.0,-100.00,WNW,287,3.0,8.0,44,0.00,,,0.00,0.000000,,2013-04-02 04:53:00,
2013-04-01 23:02:00,41.0,21.0,-100.00,WNW,287,3.0,8.0,44,0.00,,,0.00,0.000000,,2013-04-02 05:02:00,
2013-04-01 23:12:00,41.0,21.0,-100.00,WNW,287,3.0,8.0,44,0.00,,,0.00,0.000000,,2013-04-02 05:12:00,
2013-04-01 23:22:00,41.0,21.0,-100.00,WNW,287,3.0,8.0,44,0.00,,,0.00,0.000000,,2013-04-02 05:22:00,
2013-04-01 23:30:00,41.0,22.0,-100.00,ESE,116,3.0,7.0,47,0.00,,,0.00,0.000000,,2013-04-02 05:30:00,
2013-04-01 23:52:00,41.0,22.0,-100.00,ESE,116,3.0,7.0,47,0.00,,,0.00,0.000000,,2013-04-02 05:52:00,